TimeCDT,TemperatureF,Dew PointF,Humidity,Sea Level PressureIn,VisibilityMPH,Wind Direction,Wind SpeedMPH,Gust SpeedMPH,PrecipitationIn,Events,Conditions,WindDirDegrees,DateUTC
12:52 AM,91.0,64.0,41,29.93,10.0,ESE,6.9,-,0.00,,Clear,120,2013-07-13 05:52:00
1:52 AM,90.0,64.9,43,29.93,10.0,ESE,5.8,-,N/A,,Clear,120,2013-07-13 06:52:00
2:52 AM,89.1,64.0,43,29.92,10.0,ESE,11.5,-,N/A,,Clear,110,2013-07-13 07:52:00
3:52 AM,87.1,64.9,48,29.93,10.0,ESE,6.9,-,N/A,,Clear,110,2013-07-13 08:52:00
4:52 AM,86.0,66.0,51,29.93,10.0,ESE,6.9,-,N/A,,Clear,110,2013-07-13 09:52:00
5:52 AM,84.9,66.0,53,29.95,10.0,SE,8.1,-,N/A,,Clear,130,2013-07-13 10:52:00
6:52 AM,84.0,66.0,55,29.96,10.0,ESE,5.8,-,N/A,,Clear,110,2013-07-13 11:52:00
7:52 AM,84.9,66.9,55,29.98,10.0,ESE,9.2,-,N/A,,Clear,110,2013-07-13 12:52:00
8:14 AM,84.2,66.2,55,30.03,10.0,ESE,9.2,24.2,N/A,,Clear,110,2013-07-13 13:14:00
8:52 AM,87.1,66.9,51,29.99,10.0,ESE,10.4,-,N/A,,Clear,120,2013-07-13 13:52:00
9:52 AM,90.0,66.9,46,29.99,10.0,SE,9.2,-,0.00,,Clear,130,2013-07-13 14:52:00
10:52 AM,91.0,66.0,44,29.97,10.0,ESE,6.9,-,N/A,,Clear,110,2013-07-13 15:52:00
11:52 AM,96.1,64.9,36,29.97,10.0,SE,6.9,-,N/A,,Clear,140,2013-07-13 16:52:00
12:52 PM,99.0,64.0,32,29.95,10.0,North,5.8,-,N/A,,Clear,10,2013-07-13 17:52:00
1:52 PM,100.9,62.1,28,29.93,10.0,NNE,4.6,-,N/A,,Mostly Cloudy,20,2013-07-13 18:52:00
2:52 PM,100.9,59.0,25,29.91,10.0,Calm,Calm,-,N/A,,Mostly Cloudy,0,2013-07-13 19:52:00
3:52 PM,104.0,61.0,24,29.89,10.0,East,9.2,-,N/A,,Mostly Cloudy,90,2013-07-13 20:52:00
4:52 PM,102.0,57.9,23,29.87,10.0,NE,3.5,-,N/A,,Mostly Cloudy,40,2013-07-13 21:52:00
5:52 PM,102.9,57.9,23,29.86,10.0,East,9.2,-,N/A,,Mostly Cloudy,90,2013-07-13 22:52:00
6:52 PM,100.9,60.1,26,29.86,10.0,East,11.5,-,N/A,,Clear,80,2013-07-13 23:52:00
7:52 PM,98.1,60.1,28,29.86,10.0,East,12.7,-,N/A,,Clear,90,2013-07-14 00:52:00
8:52 PM,95.0,59.0,30,29.87,10.0,ESE,13.8,18.4,N/A,,Clear,110,2013-07-14 01:52:00
9:52 PM,93.0,57.9,31,29.89,10.0,ESE,10.4,-,N/A,,Clear,120,2013-07-14 02:52:00
10:52 PM,91.0,55.0,29,29.92,10.0,East,10.4,-,N/A,,Clear,90,2013-07-14 03:52:00
11:52 PM,89.1,57.0,34,29.93,10.0,ESE,11.5,-,N/A,,Clear,110,2013-07-14 04:52:00